THOR ABLESTAR DEB, 559

Orbit data source: Space-Track

THOR ABLESTAR DEB, 559 is space debris in LEO originally from a launch on Thu, 29 Jun 1961 UTC launched from the Air Force Eastern Test Range (AFETR). Debris objects in space refer to the collection of defunct objects orbiting the Earth. Examples of debris include non-operational satellites, rocket bodies, and fragments generated from explosions, collisions, or faulty payload assembly.

Loading next visibility...
Identifier
559, 1961-015GR
Orbit
LEO
Country
Flag of USUS
Related business
Manufacturer
Unknown
Mission
Spacecraft
Bus & Motor
Unknown
Mass
Unknown
Launch date (UTC)
1961-06-29 (65 years ago)
Launch vehicle
Unknown
Launch site
Air Force Eastern Test Range (AFETR)
Object type
Payload
Rocket body
Debris
Shape & HBR
Unknown shape, 0.1 m
Radar Cross Section
Medium (>0.1 m² and <1 m²)

Expand to show TLE details & history
Last TLE update: 1 day ago

TLE from 1 day ago
0 THOR ABLESTAR DEB
1 00559U 61015GR  26252.79611009  .00006299  00000-0  95295-3 0  9991
2 00559  66.5968  52.9719 0032959  97.6751 262.8114 14.74507004362240
Epoch: 2026-09-09T19:06Z
TLE epoch observation values (Epoch: 2026-09-09T19:06:23.911Z)
Latitude
-0.00003°
Longitude
137.52922°
Altitude
651.832 km
Speed
7.531 km/s
True Right ascension
03h 31m 53s
True Declination
0° 00' 00"
Sunlit
Object was in partial shadow at epoch
Visualization orbit readout
Latitude
Unknown
Longitude
Unknown
Altitude
Unknown
Speed
Unknown
Apparent Right ascension
Unknown
Apparent Declination
Unknown
Sunlit
N/A
Visualization observer readout
Local Sidereal Time
15:31:56
Azimuth
Unknown
Elevation
Unknown
Doppler factor
Unknown
Orbital elements
Apogee altitude
668.218 km
Perigee altitude
621.922 km
Semi-major axis
7,023.207 km
Eccentricity
0.0033
Inclination
66.5968°
RAAN
52.9719°
Arg. of periapsis
97.6751°
True anomaly
262.43688°
Mean anomaly
262.8114°
Eccentric anomaly
262.62412°
Mean motion
3.68757 °/min
Orbital period
97.63 mins
BSTAR
0.00095295
Loading maneuver chart data...
Computing Atmospheric mass density...

Documentation

Showing up to 5 results
|